TimeEST,TemperatureF,Dew PointF,Humidity,Sea Level PressureIn,VisibilityMPH,Wind Direction,Wind SpeedMPH,Gust SpeedMPH,PrecipitationIn,Events,Conditions,WindDirDegrees,DateUTC
12:56 AM,21.0,10.0,63,30.18,7.0,WNW,5.8,-,N/A,,Mostly Cloudy,300,2013-01-21 05:56:00
1:56 AM,21.0,11.1,66,30.16,7.0,NW,8.1,-,N/A,,Mostly Cloudy,310,2013-01-21 06:56:00
2:56 AM,21.0,11.1,66,30.16,7.0,West,6.9,-,N/A,,Overcast,280,2013-01-21 07:56:00
3:56 AM,21.0,12.0,68,30.14,7.0,West,9.2,-,0.00,Snow,Light Snow,270,2013-01-21 08:56:00
4:56 AM,20.1,12.0,71,30.13,7.0,West,10.4,-,0.00,Snow,Light Snow,270,2013-01-21 09:56:00
5:46 AM,19.4,10.4,68,30.08,7.0,West,6.9,-,0.00,,Overcast,270,2013-01-21 10:46:00
5:56 AM,20.1,11.1,68,30.13,7.0,West,9.2,-,0.00,,Overcast,270,2013-01-21 10:56:00
6:56 AM,20.1,9.1,62,30.11,7.0,WSW,13.8,-,0.00,,Overcast,250,2013-01-21 11:56:00
7:56 AM,19.0,10.0,68,30.12,7.0,West,10.4,-,N/A,,Overcast,270,2013-01-21 12:56:00
8:36 AM,19.4,10.4,68,30.07,6.0,West,17.3,-,0.00,Snow,Light Snow,260,2013-01-21 13:36:00
8:44 AM,19.4,8.6,63,30.07,6.0,West,18.4,24.2,0.00,,Haze,270,2013-01-21 13:44:00
8:56 AM,19.0,9.1,65,30.12,6.0,West,19.6,-,0.00,Snow,Light Snow,270,2013-01-21 13:56:00
9:56 AM,19.0,10.0,68,30.11,5.0,West,18.4,-,0.00,Snow,Light Snow,260,2013-01-21 14:56:00
10:56 AM,19.0,9.1,65,30.11,5.0,West,17.3,-,0.00,Snow,Light Snow,260,2013-01-21 15:56:00
11:07 AM,19.4,8.6,63,30.07,3.0,WNW,17.3,-,0.00,Snow,Light Snow,300,2013-01-21 16:07:00
11:11 AM,17.6,10.4,73,30.07,1.8,WNW,17.3,-,0.00,Snow,Light Snow,290,2013-01-21 16:11:00
11:14 AM,17.6,10.4,73,30.07,1.2,WNW,16.1,-,0.00,Snow,Light Snow,300,2013-01-21 16:14:00
11:34 AM,17.6,12.2,79,30.06,2.0,West,13.8,-,0.00,Snow,Light Snow,280,2013-01-21 16:34:00
11:42 AM,17.6,10.4,73,30.06,6.0,West,15.0,-,0.00,,Haze,280,2013-01-21 16:42:00
11:56 AM,19.0,10.0,68,30.10,5.0,West,20.7,24.2,0.00,Snow,Light Snow,280,2013-01-21 16:56:00
12:03 PM,17.6,10.4,73,30.05,2.5,WNW,18.4,-,0.00,Snow,Light Snow,290,2013-01-21 17:03:00
12:07 PM,17.6,10.4,73,30.05,1.2,West,17.3,-,0.00,Snow,Light Snow,280,2013-01-21 17:07:00
12:11 PM,17.6,12.2,79,30.05,0.8,West,16.1,-,0.00,Snow,Light Snow,280,2013-01-21 17:11:00
12:21 PM,17.6,12.2,79,30.06,0.5,WNW,20.7,24.2,0.00,Snow,Snow,290,2013-01-21 17:21:00
12:26 PM,15.8,10.4,79,30.06,0.5,WNW,18.4,25.3,0.00,Snow,Snow,290,2013-01-21 17:26:00
12:32 PM,15.8,10.4,79,30.06,0.8,WNW,18.4,25.3,0.00,Snow,Light Snow,290,2013-01-21 17:32:00
12:34 PM,15.8,10.4,79,30.05,1.2,WNW,15.0,25.3,0.00,Snow,Light Snow,290,2013-01-21 17:34:00
12:36 PM,15.8,10.4,79,30.05,2.0,WNW,16.1,24.2,0.00,Snow,Light Snow,290,2013-01-21 17:36:00
12:46 PM,15.8,8.6,73,30.06,3.0,West,21.9,-,0.00,Snow,Light Snow,280,2013-01-21 17:46:00
12:56 PM,18.1,9.1,68,30.10,2.5,West,18.4,27.6,0.00,Snow,Light Snow,280,2013-01-21 17:56:00
1:07 PM,17.6,8.6,68,30.05,3.0,West,21.9,-,0.00,Snow,Light Snow,270,2013-01-21 18:07:00
1:14 PM,17.6,8.6,68,30.05,4.0,West,19.6,28.8,0.00,Snow,Light Snow,270,2013-01-21 18:14:00
1:27 PM,17.6,8.6,68,30.04,4.0,WNW,20.7,24.2,0.00,Snow,Light Snow,300,2013-01-21 18:27:00
1:35 PM,15.8,8.6,73,30.05,3.0,WNW,17.3,25.3,0.00,Snow,Light Snow,290,2013-01-21 18:35:00
1:40 PM,15.8,8.6,73,30.05,2.0,WNW,18.4,-,0.00,Snow,Light Snow,290,2013-01-21 18:40:00
1:45 PM,15.8,8.6,73,30.05,1.2,West,17.3,-,0.00,Snow,Light Snow,280,2013-01-21 18:45:00
1:56 PM,16.2,9.1,74,30.10,2.0,West,20.7,-,0.00,Snow,Light Snow,280,2013-01-21 18:56:00
2:10 PM,15.8,6.8,68,30.05,4.0,West,19.6,-,0.00,Snow,Light Snow,280,2013-01-21 19:10:00
2:19 PM,15.8,6.8,68,30.06,1.8,WNW,19.6,-,0.00,Snow,Light Snow,290,2013-01-21 19:19:00
2:23 PM,15.8,8.6,73,30.06,1.0,WNW,16.1,-,0.00,Snow,Light Snow,290,2013-01-21 19:23:00
2:31 PM,15.8,8.6,73,30.06,1.2,West,18.4,25.3,0.00,Snow,Light Snow,270,2013-01-21 19:31:00
2:41 PM,15.8,8.6,73,30.06,1.8,West,19.6,25.3,0.00,Snow,Light Snow,260,2013-01-21 19:41:00
2:47 PM,15.8,8.6,73,30.06,1.2,West,19.6,-,0.00,Snow,Light Snow,270,2013-01-21 19:47:00
2:56 PM,16.2,8.1,70,30.11,2.5,West,18.4,-,0.00,Snow,Light Snow,270,2013-01-21 19:56:00
3:05 PM,15.8,8.6,73,30.07,1.2,WNW,21.9,26.5,0.00,Snow,Light Snow,300,2013-01-21 20:05:00
3:07 PM,14.0,8.6,79,30.07,0.8,WNW,20.7,26.5,0.00,Snow,Light Snow,290,2013-01-21 20:07:00
3:15 PM,15.8,8.6,73,30.07,1.2,West,19.6,-,0.00,Snow,Light Snow,270,2013-01-21 20:15:00
3:17 PM,15.8,8.6,73,30.07,2.0,West,21.9,27.6,0.00,Snow,Light Snow,270,2013-01-21 20:17:00
3:24 PM,15.8,6.8,68,30.07,6.0,West,19.6,27.6,0.00,,Haze,270,2013-01-21 20:24:00
3:36 PM,15.8,6.8,68,30.08,1.8,West,23.0,29.9,0.00,Snow,Light Snow,270,2013-01-21 20:36:00
3:44 PM,15.8,6.8,68,30.08,2.5,West,18.4,29.9,0.00,Snow,Light Snow,280,2013-01-21 20:44:00
3:56 PM,15.1,5.0,64,30.14,4.0,West,21.9,31.1,0.00,Snow,Light Snow,280,2013-01-21 20:56:00
4:56 PM,13.1,1.0,59,30.16,6.0,West,20.7,-,0.00,,Haze,260,2013-01-21 21:56:00
5:39 PM,10.4,3.2,73,30.12,2.5,West,16.1,-,0.00,Snow,Light Snow,280,2013-01-21 22:39:00
5:47 PM,10.4,1.4,67,30.12,6.0,WNW,21.9,27.6,0.00,,Haze,290,2013-01-21 22:47:00
5:56 PM,11.1,0.1,61,30.18,6.0,West,20.7,26.5,0.00,,Haze,280,2013-01-21 22:56:00
6:56 PM,10.0,-1.8,59,30.20,7.0,West,23.0,28.8,N/A,,Partly Cloudy,280,2013-01-21 23:56:00
7:56 PM,9.1,-2.9,58,30.20,7.0,West,21.9,28.8,N/A,,Clear,270,2013-01-22 00:56:00
8:56 PM,8.1,-2.9,61,30.22,7.0,WNW,18.4,23.0,N/A,,Clear,290,2013-01-22 01:56:00
9:56 PM,7.2,-2.9,63,30.24,7.0,West,16.1,25.3,N/A,,Scattered Clouds,280,2013-01-22 02:56:00
10:56 PM,7.2,-4.9,58,30.25,7.0,West,13.8,23.0,N/A,,Clear,280,2013-01-22 03:56:00
11:56 PM,6.1,-6.0,58,30.26,7.0,WNW,16.1,-,N/A,,Clear,290,2013-01-22 04:56:00